STARLINK-34329

Satellite information

Favourite Embed

Satellite Type and Status

PAYLOADIN ORBIT

Key statistics

Satellite STARLINK-34329 at a glance.

Uptime

192

Days in orbit

Revolutions

≈ 15.3

Per day

Orbit

LEO

Low Earth Orbit

Inclination

53.2

Latest

Satellite identification and parameters

Extended collection of information and parameters for STARLINK-34329.

Object identification

Identified? True

Debris? False

Object name: STARLINK-34329

International designator: 2025-120A

Object number (NORAD): 64256

Object ID (CCSDS): 64256

Country: UNITED STATES OF AMERICA (US)

Current information (Y/N): Y

RCS size: LARGE

Orbital parameters

Period: 94.103 minutes

Inclination: 53.1589 deg

SMA: 6853.259 km

Apoapsis: 475.823 km

Periapsis: 474.424 km

RAAN: 164.7219 deg

Eccentricy: 0.00010201

Argument of periapsis: 101.6709 deg

Mean anomaly: 258.4406 deg

Mean motion: 15.302313 rev/day

Mean motion (dot): 0.00042893 rev/day2

B* drag term: 0.0014506048 1/REarth

Two-line elements (TLE)

Creation date: Dec. 12, 2025, 3:16 a.m.

Reference frame: TEME

Reference center: EARTH

Epoch: Dec. 11, 2025, 7:24 p.m. UTC

TLE line 0: 0 STARLINK-34329

TLE line 1: 1 64256U 25120A 25345.80877190 .00042893 00000-0 14506-2 0 9996

TLE line 2: 2 64256 53.1589 164.7219 0001020 101.6709 258.4406 15.30231300 30474

Live tracking on map

Real-time ground track for satellite STARLINK-34329.

In-orbit conjunctions

There are no conjunctions computed for STARLINK-34329, at the moment. Check back to stay up to date, as we update our databases every day.

Go to all conjunctions

Associated space launch

A batch of 27 satellites for the Starlink mega-constellation - SpaceX's project for space-based Internet communication system.

STARLINK-34329 was lifted into orbit during the mission ‘Falcon 9 Block 5 | Starlink Group 11-22’, on board a Falcon 9 space rocket.

The launch took place on June 4, 2025, 11:40 p.m. from Space Launch Complex 4E.

For more information about the launch, click the button.

Launch to space Falcon 9 Block 5 | Starlink Group 11-22
Falcon 9 Block 5 | Starlink Group 11-22

Agency: SpaceX

Status: Launch Successful

Launch date: June 4, 2025, 11:40 p.m. UTC

Rocket: Falcon 9

Launch pad: Space Launch Complex 4E

Location: Vandenberg SFB, CA, USA

...

Latest news about this satellite

News about space launch
Live coverage: SpaceX to launch 50th Starlink mission of 2025 on Wednesday afternoon Falcon 9 flight from California

The Starlink 11-22 mission is SpaceX’s 68th launch of the year. Teams are targeting liftoff from pad 4 East at Vandenberg Space Force Base at 4:28 p.m. PDT (7:28 p.m. EDT, 2338 UTC).

News about space launch
Launch Roundup: Falcon 9 to launch crewed mission, Rocket Lab to launch 65th Electron

SpaceX continues to dominate the launch manifest with five missions this week, including a crewed… The post Launch Roundup: Falcon 9 to launch crewed mission, Rocket Lab to launch 65th Electron appeared first on NASASpaceFlight.com.


Newsletter sign-up

Weekly statistics, charts and insights to help you stay on top of the space industry.